Scottsdale, AZ

12:04 PM MST on September 30, 2016 (GMT -0700)
Scottsdale

Weather History for KSDL - August, 2013

Change the Weather History Date:

Sunday, August 4, 2013

  Actual Average Record
Temperature  
Mean Temperature 93 °F -  
Max Temperature 100 °F 101 °F 111 °F (1998)
Min Temperature 86 °F 81 °F 78 °F (2014)
Cooling Degree Days 28    
Growing Degree Days 43 (Base 50)    
Moisture  
Dew Point 49 °F    
Average Humidity 22    
Maximum Humidity 33    
Minimum Humidity 14    
Precipitation  
Precipitation 0.00 in - - ()
Sea Level Pressure  
Sea Level Pressure 29.83 in    
Wind  
Wind Speed 2 mph (SE)    
Max Wind Speed 7 mph    
Max Gust Speed -    
Visibility 10 miles    
Events      
Averages and records for this station are not official NWS values.
T = Trace of Precipitation, MM = Missing Value Source: NWS Daily Summary

Daily Weather History Graph

Daily Weather History Graph

Search for Another Location

Airport or City:

Trip Planner

Search our weather history database for the weather conditions in past years. The results will help you decide how hot, cold, wet, or windy it might be!

Date:

Astronomy

Aug. 04, 2013 Rise Set
Actual Time 5:42 AM MST 7:24 PM MST
Civil Twilight 5:15 AM MST 7:51 PM MST
Nautical Twilight 4:42 AM MST 8:24 PM MST
Astronomical Twilight 4:08 AM MST 8:58 PM MST
Moon 3:47 AM MST (8/4) 5:50 PM MST (8/4)
Length of Visible Light 14h 36m
Length of Day
13h 42m
Waning Crescent, 4% of the Moon is Illuminated
Aug 4
Waning Crescent
Aug 6
New
Aug 14
First Quarter
Aug 20
Full
Aug 28
Last Quarter

Hourly Weather History & Observations

Time (MST) Temp. Heat Index Dew Point Humidity Pressure Visibility Wind Dir Wind Speed Gust Speed Precip Events Conditions
12:53 AM 95.0 °F - 52.0 °F 23% 29.81 in 10.0 mi West 3.5 mph - N/A   Clear
1:53 AM 93.0 °F - 45.0 °F 19% 29.81 in 10.0 mi Calm Calm - N/A   Clear
2:53 AM 91.9 °F - 46.0 °F 21% 29.80 in 10.0 mi Calm Calm - N/A   Clear
3:53 AM 89.1 °F - 50.0 °F 26% 29.81 in 10.0 mi Calm Calm - N/A   Clear
4:53 AM 88.0 °F 85.7 °F 53.1 °F 30% 29.82 in 10.0 mi Calm Calm - N/A   Clear
5:53 AM 86.0 °F 84.2 °F 54.0 °F 33% 29.83 in 10.0 mi Calm Calm - N/A   Clear
6:53 AM 87.1 °F - 52.0 °F 30% 29.86 in 10.0 mi ESE 3.5 mph - N/A   Clear
7:53 AM 90.0 °F 87.9 °F 55.0 °F 30% 29.88 in 10.0 mi Variable 3.5 mph - N/A   Clear
8:53 AM 93.0 °F - 50.0 °F 23% 29.89 in 10.0 mi Variable 3.5 mph - N/A   Clear
9:53 AM 96.1 °F - 50.0 °F 21% 29.89 in 10.0 mi SE 4.6 mph - N/A   Clear
10:53 AM 97.0 °F - 48.0 °F 19% 29.89 in 10.0 mi SE 5.8 mph - N/A   Clear
11:53 AM 97.0 °F - 45.0 °F 17% 29.88 in 10.0 mi South 4.6 mph - N/A   Clear
12:53 PM 97.0 °F - 46.9 °F 18% 29.87 in 10.0 mi Variable 4.6 mph - N/A   Clear
1:53 PM 97.0 °F - 42.1 °F 15% 29.85 in 10.0 mi Variable 6.9 mph - N/A   Clear
2:53 PM 99.0 °F - 42.1 °F 14% 29.83 in 10.0 mi Variable 4.6 mph - N/A   Clear
3:53 PM 99.0 °F - 42.1 °F 14% 29.81 in 10.0 mi Calm Calm - N/A   Clear
4:53 PM 100.9 °F - 43.0 °F 14% 29.78 in 10.0 mi NE 4.6 mph - N/A   Clear
5:53 PM 100.9 °F - 45.0 °F 15% 29.77 in 10.0 mi South 3.5 mph - N/A   Clear
6:53 PM 100.0 °F - 46.0 °F 16% 29.77 in 10.0 mi Calm Calm - N/A   Clear
7:53 PM 98.1 °F - 48.0 °F 18% 29.78 in 10.0 mi Calm Calm - N/A   Clear
8:53 PM 96.1 °F - 48.9 °F 20% 29.79 in 10.0 mi ENE 3.5 mph - N/A   Clear
9:53 PM 93.0 °F 90.6 °F 53.1 °F 26% 29.80 in 10.0 mi Calm Calm - N/A   Clear
10:53 PM 90.0 °F 87.7 °F 54.0 °F 29% 29.80 in 10.0 mi Calm Calm - N/A   Clear
11:53 PM 89.1 °F 87.3 °F 55.9 °F 32% 29.80 in 10.0 mi Calm Calm - N/A   Clear